Shirley, NY

9:24 PM EST on February 19, 2018 (GMT -0500)
Brookhaven

Weather History for KHWV - April, 2014

Change the Weather History Date:

Monday, April 14, 2014

  Actual Average (KISP) Record (KISP)
Temperature  
Mean Temperature 57 °F -  
Max Temperature 62 °F 57 °F 73 °F (2002)
Min Temperature 52 °F 39 °F 28 °F (2000)
Degree Days  
Heating Degree Days 8    
Growing Degree Days 7 (Base 50)    
Moisture  
Dew Point 51 °F    
Average Humidity 82    
Maximum Humidity 93    
Minimum Humidity 67    
Precipitation  
Precipitation 0.00 in - - ()
Sea Level Pressure  
Sea Level Pressure 30.02 in    
Wind  
Wind Speed 15 mph (SSW)    
Max Wind Speed 24 mph    
Max Gust Speed 36 mph    
Visibility 10 miles    
Events      
Averages and records for this station are not official NWS values.
T = Trace of Precipitation, MM = Missing Value Source: NWS Daily Summary

Daily Weather History Graph

Daily Weather History Graph

Search for Another Location

Airport or City:

Trip Planner

Search our weather history database for the weather conditions in past years. The results will help you decide how hot, cold, wet, or windy it might be!

Date:

Astronomy

Apr. 14, 2014 Rise Set
Actual Time 6:14 AM EDT 7:29 PM EDT
Civil Twilight 5:45 AM EDT 7:58 PM EDT
Nautical Twilight 5:11 AM EDT 8:32 PM EDT
Astronomical Twilight 4:36 AM EDT 9:08 PM EDT
Moon 7:05 PM EDT (4/14) 5:44 AM EDT (4/14)
Length of Visible Light 14h 12m
Length of Day
13h 15m
Full, 100% of the Moon is Illuminated
Apr 14
Full
Apr 15
Full
Apr 22
Last Quarter
Apr 29
New
May 6
First Quarter

Hourly Weather History & Observations

Time (EDT) Temp. Dew Point Humidity Pressure Visibility Wind Dir Wind Speed Gust Speed Precip Events Conditions
12:56 AM 52.0 °F 48.9 °F 89% 30.08 in 10.0 mi SSW 12.7 mph - N/A   Clear
1:56 AM 54.0 °F 50.0 °F 86% 30.08 in 10.0 mi SSW 15.0 mph 21.9 mph N/A   Clear
2:56 AM 54.0 °F 48.9 °F 83% 30.07 in 10.0 mi SSW 11.5 mph - N/A   Clear
3:56 AM 53.1 °F 48.9 °F 86% 30.06 in 10.0 mi SSW 12.7 mph 20.7 mph N/A   Clear
4:41 AM 53.1 °F 50.0 °F 89% 30.06 in 10.0 mi SW 13.8 mph 21.9 mph N/A   Partly Cloudy
4:56 AM 53.1 °F 50.0 °F 89% 30.06 in 9.0 mi SSW 11.5 mph 21.9 mph N/A   Partly Cloudy
5:56 AM 53.1 °F 50.0 °F 89% 30.06 in 9.0 mi SSW 15.0 mph 23.0 mph N/A   Scattered Clouds
6:13 AM 53.1 °F 50.0 °F 89% 30.06 in 8.0 mi SSW 11.5 mph - N/A   Mostly Cloudy
6:49 AM 53.1 °F 50.0 °F 89% 30.06 in 8.0 mi SSW 13.8 mph 20.7 mph N/A   Scattered Clouds
6:56 AM 53.1 °F 50.0 °F 89% 30.07 in 8.0 mi SSW 11.5 mph 20.7 mph N/A   Scattered Clouds
7:56 AM 54.0 °F 50.0 °F 86% 30.07 in 9.0 mi SSW 11.5 mph 26.5 mph N/A   Scattered Clouds
8:56 AM 57.0 °F 51.1 °F 81% 30.07 in 10.0 mi SSW 15.0 mph 24.2 mph N/A   Partly Cloudy
9:56 AM 59.0 °F 51.1 °F 75% 30.07 in 10.0 mi South 18.4 mph 28.8 mph N/A   Clear
10:56 AM 57.9 °F 50.0 °F 75% 30.06 in 10.0 mi SSW 21.9 mph 32.2 mph N/A   Clear
11:56 AM 62.1 °F 52.0 °F 70% 30.05 in 10.0 mi SSW 21.9 mph 33.4 mph N/A   Clear
12:56 PM 62.1 °F 51.1 °F 67% 30.03 in 10.0 mi SSW 24.2 mph 35.7 mph N/A   Clear
1:56 PM 61.0 °F 51.1 °F 70% 30.02 in 10.0 mi SSW 24.2 mph 33.4 mph N/A   Clear
2:56 PM 57.9 °F 48.9 °F 72% 30.02 in 10.0 mi South 23.0 mph 32.2 mph N/A   Clear
3:56 PM 57.9 °F 48.9 °F 72% 30.00 in 10.0 mi South 20.7 mph 29.9 mph N/A   Clear
4:56 PM 61.0 °F 50.0 °F 67% 29.98 in 10.0 mi SSW 17.3 mph 28.8 mph N/A   Clear
5:56 PM 59.0 °F 50.0 °F 72% 29.97 in 10.0 mi South 20.7 mph 28.8 mph N/A   Clear
6:56 PM 57.0 °F 48.9 °F 74% 29.96 in 10.0 mi South 18.4 mph 28.8 mph N/A   Clear
7:56 PM 55.9 °F 50.0 °F 80% 29.96 in 10.0 mi South 16.1 mph 24.2 mph N/A   Clear
8:56 PM 57.0 °F 52.0 °F 83% 29.97 in 10.0 mi South 19.6 mph 27.6 mph N/A   Clear
9:56 PM 55.0 °F 52.0 °F 89% 29.96 in 9.0 mi South 15.0 mph 24.2 mph N/A   Mostly Cloudy
10:04 PM 55.9 °F 52.0 °F 87% 29.95 in 9.0 mi South 17.3 mph 26.5 mph N/A   Mostly Cloudy
10:21 PM 55.9 °F 53.1 °F 90% 29.95 in 9.0 mi South 16.1 mph - N/A   Overcast
10:47 PM 55.9 °F 53.1 °F 90% 29.93 in 9.0 mi SSW 17.3 mph 25.3 mph N/A   Overcast
10:56 PM 55.9 °F 54.0 °F 93% 29.94 in 9.0 mi South 19.6 mph 27.6 mph N/A   Overcast
11:19 PM 55.9 °F 54.0 °F 93% 29.93 in 8.0 mi South 18.4 mph 27.6 mph N/A   Overcast
11:44 PM 57.0 °F 54.0 °F 89% 29.92 in 9.0 mi SSW 16.1 mph 28.8 mph N/A   Overcast